When you browse on this site, cookies collect data to enhance your experience and personalize the content and advertising you see.
Visit our Privacy Policy to learn more. By continuing to use the site, you agree to this use of cookies and data.
  • en France
  • Liste des pays
  • À 7 jours
  • Température de l'eau
  • Carte satellitaire
  • Carte météo
  • Widgets météo
  • user-avatar
    Se connecter

    Météo par heure à Maradi

    Ce jour, 20 Novembre, Mardi

    Heure Température Précipitation Vent Pression Humidité
    00:00 +27°C° 0 mm 3 m/s 729 mmHg 19%
    01:00 +27°C° 0 mm 3 m/s 728 mmHg 19%
    02:00 +26°C° 0 mm 3 m/s 728 mmHg 20%
    03:00 +26°C° 0 mm 3 m/s 728 mmHg 20%
    04:00 +26°C° 0 mm 3 m/s 728 mmHg 20%
    05:00 +25°C° 0 mm 3 m/s 729 mmHg 19%
    06:00 +26°C° 0 mm 3 m/s 729 mmHg 19%
    07:00 +28°C° 0 mm 4 m/s 729 mmHg 16%
    08:00 +32°C° 0 mm 4 m/s 730 mmHg 13%
    09:00 +35°C° 0 mm 5 m/s 730 mmHg 11%
    10:00 +36°C° 0 mm 5 m/s 730 mmHg 11%
    11:00 +38°C° 0 mm 4 m/s 730 mmHg 11%
    12:00 +40°C° 0 mm 4 m/s 729 mmHg 11%
    13:00 +40°C° 0 mm 4 m/s 729 mmHg 11%
    14:00 +40°C° 0 mm 4 m/s 728 mmHg 11%
    15:00 +39°C° 0 mm 3 m/s 728 mmHg 11%
    16:00 +37°C° 0 mm 3 m/s 728 mmHg 12%
    17:00 +35°C° 0 mm 3 m/s 728 mmHg 13%
    18:00 +33°C° 0 mm 3 m/s 728 mmHg 15%
    19:00 +31°C° 0 mm 3 m/s 729 mmHg 14%
    20:00 +30°C° 0 mm 3 m/s 729 mmHg 14%
    21:00 +29°C° 0 mm 3 m/s 729 mmHg 14%
    22:00 +29°C° 0 mm 4 m/s 729 mmHg 13%
    23:00 +28°C° 0 mm 4 m/s 729 mmHg 13%

    Demain, 21 Novembre, Mercredi

    Heure Température Précipitation Vent Pression Humidité
    00:00 +28°C° 0 mm 4 m/s 729 mmHg 12%
    01:00 +27°C° 0 mm 4 m/s 729 mmHg 12%
    02:00 +27°C° 0 mm 4 m/s 728 mmHg 12%
    03:00 +26°C° 0 mm 4 m/s 728 mmHg 12%
    04:00 +26°C° 0 mm 4 m/s 728 mmHg 12%
    05:00 +25°C° 0 mm 4 m/s 728 mmHg 13%
    06:00 +25°C° 0 mm 4 m/s 729 mmHg 14%
    07:00 +28°C° 0 mm 5 m/s 729 mmHg 12%
    08:00 +32°C° 0 mm 5 m/s 730 mmHg 11%
    09:00 +35°C° 0 mm 6 m/s 730 mmHg 10%
    10:00 +36°C° 0 mm 6 m/s 730 mmHg 9%
    11:00 +39°C° 0 mm 5 m/s 729 mmHg 8%
    12:00 +40°C° 0 mm 5 m/s 729 mmHg 7%
    13:00 +40°C° 0 mm 5 m/s 728 mmHg 7%
    14:00 +40°C° 0 mm 4 m/s 728 mmHg 7%
    15:00 +41°C° 0 mm 4 m/s 727 mmHg 7%
    16:00 +37°C° 0 mm 4 m/s 727 mmHg 8%
    17:00 +35°C° 0 mm 4 m/s 728 mmHg 9%
    18:00 +33°C° 0 mm 4 m/s 728 mmHg 10%
    19:00 +32°C° 0 mm 4 m/s 728 mmHg 10%
    20:00 +30°C° 0 mm 4 m/s 729 mmHg 10%
    21:00 +29°C° 0 mm 4 m/s 729 mmHg 10%
    22:00 +28°C° 0 mm 4 m/s 729 mmHg 10%
    23:00 +28°C° 0 mm 5 m/s 729 mmHg 10%

    Après-demain, 22 Novembre, Jeudi

    Heure Température Précipitation Vent Pression Humidité
    00:00 +27°C° 0 mm 5 m/s 729 mmHg 10%
    01:00 +27°C° 0 mm 5 m/s 729 mmHg 11%
    02:00 +26°C° 0 mm 4 m/s 728 mmHg 11%
    03:00 +25°C° 0 mm 4 m/s 728 mmHg 11%
    04:00 +25°C° 0 mm 4 m/s 728 mmHg 12%
    05:00 +25°C° 0 mm 4 m/s 728 mmHg 13%
    06:00 +23°C° 0 mm 4 m/s 728 mmHg 13%
    07:00 +27°C° 0 mm 5 m/s 729 mmHg 12%
    08:00 +30°C° 0 mm 6 m/s 730 mmHg 10%
    09:00 +35°C° 0 mm 7 m/s 730 mmHg 9%
    10:00 +36°C° 0 mm 7 m/s 730 mmHg 8%
    11:00 +39°C° 0 mm 7 m/s 729 mmHg 7%
    12:00 +40°C° 0 mm 7 m/s 728 mmHg 6%
    13:00 +40°C° 0 mm 7 m/s 728 mmHg 6%
    14:00 +40°C° 0 mm 6 m/s 727 mmHg 6%
    15:00 +40°C° 0 mm 6 m/s 727 mmHg 5%
    16:00 +36°C° 0 mm 5 m/s 727 mmHg 6%
    17:00 +34°C° 0 mm 4 m/s 727 mmHg 7%
    18:00 +30°C° 0 mm 3 m/s 727 mmHg 8%
    19:00 +29°C° 0 mm 3 m/s 728 mmHg 9%
    20:00 +28°C° 0 mm 3 m/s 728 mmHg 9%
    21:00 +27°C° 0 mm 3 m/s 729 mmHg 9%
    22:00 +27°C° 0 mm 3 m/s 729 mmHg 10%
    23:00 +26°C° 0 mm 3 m/s 728 mmHg 10%

    23 Novembre, Vendredi

    Heure Température Précipitation Vent Pression Humidité
    00:00 +25°C° 0 mm 3 m/s 728 mmHg 10%
    01:00 +25°C° 0 mm 3 m/s 728 mmHg 10%
    02:00 +23°C° 0 mm 4 m/s 728 mmHg 9%
    03:00 +23°C° 0 mm 4 m/s 727 mmHg 9%
    04:00 +23°C° 0 mm 4 m/s 728 mmHg 9%
    05:00 +22°C° 0 mm 4 m/s 728 mmHg 9%
    06:00 +22°C° 0 mm 4 m/s 728 mmHg 9%
    07:00 +26°C° 0 mm 5 m/s 729 mmHg 8%
    08:00 +29°C° 0 mm 6 m/s 730 mmHg 7%
    09:00 +34°C° 0 mm 8 m/s 730 mmHg 6%
    10:00 +35°C° 0 mm 7 m/s 730 mmHg 6%
    11:00 +38°C° 0 mm 7 m/s 729 mmHg 5%
    12:00 +40°C° 0 mm 6 m/s 729 mmHg 5%
    13:00 +40°C° 0 mm 6 m/s 728 mmHg 5%
    14:00 +40°C° 0 mm 5 m/s 727 mmHg 5%
    15:00 +40°C° 0 mm 4 m/s 727 mmHg 5%
    16:00 +36°C° 0 mm 4 m/s 727 mmHg 6%
    17:00 +34°C° 0 mm 4 m/s 727 mmHg 7%
    18:00 +30°C° 0 mm 3 m/s 727 mmHg 8%
    19:00 +29°C° 0 mm 4 m/s 728 mmHg 8%
    20:00 +28°C° 0 mm 4 m/s 728 mmHg 8%
    21:00 +28°C° 0 mm 4 m/s 729 mmHg 8%
    22:00 +27°C° 0 mm 4 m/s 729 mmHg 8%
    23:00 +26°C° 0 mm 4 m/s 728 mmHg 8%

    24 Novembre, Samedi

    Heure Température Précipitation Vent Pression Humidité
    00:00 +26°C° 0 mm 4 m/s 728 mmHg 8%
    01:00 +25°C° 0 mm 4 m/s 728 mmHg 9%
    02:00 +25°C° 0 mm 4 m/s 728 mmHg 9%
    03:00 +23°C° 0 mm 4 m/s 727 mmHg 10%
    04:00 +23°C° 0 mm 4 m/s 728 mmHg 10%
    05:00 +23°C° 0 mm 4 m/s 728 mmHg 11%
    06:00 +22°C° 0 mm 4 m/s 729 mmHg 11%
    07:00 +26°C° 0 mm 5 m/s 729 mmHg 11%
    08:00 +30°C° 0 mm 6 m/s 730 mmHg 10%
    09:00 +34°C° 0 mm 8 m/s 730 mmHg 9%
    10:00 +35°C° 0 mm 7 m/s 729 mmHg 8%
    11:00 +38°C° 0 mm 7 m/s 729 mmHg 7%
    12:00 +40°C° 0 mm 6 m/s 728 mmHg 6%
    13:00 +40°C° 0 mm 6 m/s 728 mmHg 6%
    14:00 +40°C° 0 mm 5 m/s 727 mmHg 6%
    15:00 +40°C° 0 mm 4 m/s 727 mmHg 6%
    16:00 +36°C° 0 mm 4 m/s 727 mmHg 7%
    17:00 +34°C° 0 mm 4 m/s 727 mmHg 8%
    18:00 +30°C° 0 mm 3 m/s 728 mmHg 10%
    19:00 +30°C° 0 mm 3 m/s 728 mmHg 10%
    20:00 +29°C° 0 mm 4 m/s 728 mmHg 11%
    21:00 +28°C° 0 mm 4 m/s 729 mmHg 11%
    22:00 +27°C° 0 mm 4 m/s 728 mmHg 12%
    23:00 +27°C° 0 mm 4 m/s 728 mmHg 13%

    25 Novembre, Dimanche

    Heure Température Précipitation Vent Pression Humidité
    00:00 +26°C° 0 mm 4 m/s 728 mmHg 14%
    01:00 +26°C° 0 mm 4 m/s 728 mmHg 15%
    02:00 +25°C° 0 mm 4 m/s 728 mmHg 16%
    03:00 +25°C° 0 mm 4 m/s 728 mmHg 17%
    04:00 +23°C° 0 mm 4 m/s 728 mmHg 18%
    05:00 +23°C° 0 mm 5 m/s 728 mmHg 19%
    06:00 +23°C° 0 mm 5 m/s 729 mmHg 20%
    07:00 +27°C° 0 mm 6 m/s 729 mmHg 18%
    08:00 +29°C° 0 mm 7 m/s 730 mmHg 16%
    09:00 +33°C° 0 mm 8 m/s 730 mmHg 14%
    10:00 +35°C° 0 mm 8 m/s 729 mmHg 12%
    11:00 +38°C° 0 mm 7 m/s 729 mmHg 11%
    12:00 +39°C° 0 mm 7 m/s 728 mmHg 10%
    13:00 +39°C° 0 mm 7 m/s 727 mmHg 10%
    14:00 +39°C° 0 mm 6 m/s 727 mmHg 10%
    15:00 +39°C° 0 mm 6 m/s 726 mmHg 10%
    16:00 +36°C° 0 mm 5 m/s 727 mmHg 12%
    17:00 +34°C° 0 mm 4 m/s 727 mmHg 13%
    18:00 +30°C° 0 mm 4 m/s 727 mmHg 15%
    19:00 +30°C° 0 mm 4 m/s 727 mmHg 16%
    20:00 +29°C° 0 mm 4 m/s 728 mmHg 16%
    21:00 +28°C° 0 mm 4 m/s 728 mmHg 17%
    22:00 +27°C° 0 mm 4 m/s 728 mmHg 18%
    23:00 +27°C° 0 mm 4 m/s 727 mmHg 18%
    Voir plus